TimeAKST,TemperatureF,Dew PointF,Humidity,Sea Level PressureIn,VisibilityMPH,Wind Direction,Wind SpeedMPH,Gust SpeedMPH,PrecipitationIn,Events,Conditions,WindDirDegrees,DateUTC
12:53 AM,35.1,34.0,96,29.49,6.0,SSE,5.8,-,0.02,Rain,Light Rain,150,2012-12-05 09:53:00
1:53 AM,35.1,34.0,96,29.51,10.0,South,4.6,-,0.00,,Overcast,170,2012-12-05 10:53:00
3:24 AM,35.6,33.8,93,29.53,10.0,SSE,4.6,-,0.00,,Overcast,150,2012-12-05 12:24:00
3:53 AM,36.0,35.1,97,29.55,10.0,SSE,6.9,-,0.00,,Overcast,160,2012-12-05 12:53:00
5:41 AM,35.6,33.8,93,29.59,10.0,SSE,5.8,-,0.00,,Mostly Cloudy,150,2012-12-05 14:41:00
5:49 AM,35.6,33.8,93,29.59,10.0,South,3.5,-,0.00,,Mostly Cloudy,190,2012-12-05 14:49:00
5:53 AM,36.0,34.0,93,29.60,10.0,SE,4.6,-,0.00,,Mostly Cloudy,140,2012-12-05 14:53:00
6:01 AM,35.6,33.8,93,29.60,10.0,SE,3.5,-,N/A,,Mostly Cloudy,140,2012-12-05 15:01:00
6:53 AM,35.1,33.1,92,29.62,10.0,South,5.8,-,N/A,,Mostly Cloudy,170,2012-12-05 15:53:00
7:35 AM,35.6,33.8,93,29.64,10.0,SE,6.9,-,0.01,Rain-Snow,Light Rain,140,2012-12-05 16:35:00
7:53 AM,36.0,32.0,86,29.64,10.0,ESE,5.8,-,0.01,,Overcast,120,2012-12-05 16:53:00
8:53 AM,37.9,32.0,79,29.66,6.0,South,9.2,18.4,0.05,Rain,Light Rain,170,2012-12-05 17:53:00
9:53 AM,37.0,34.0,89,29.67,10.0,South,8.1,-,0.00,,Overcast,170,2012-12-05 18:53:00
10:53 AM,37.0,34.0,89,29.67,7.0,SSE,8.1,-,0.01,Rain,Light Rain,150,2012-12-05 19:53:00
11:53 AM,37.9,35.1,89,29.68,10.0,SE,9.2,-,0.09,,Overcast,140,2012-12-05 20:53:00
12:53 PM,37.9,35.1,89,29.69,10.0,SSE,4.6,-,0.01,,Overcast,150,2012-12-05 21:53:00
1:53 PM,37.0,33.1,86,29.71,4.0,Variable,6.9,-,0.01,Rain,Rain,0,2012-12-05 22:53:00
2:24 PM,35.6,33.8,93,29.72,7.0,ESE,9.2,-,0.01,Snow,Light Snow,120,2012-12-05 23:24:00
2:53 PM,36.0,33.1,89,29.73,10.0,SSE,6.9,-,0.01,,Mostly Cloudy,160,2012-12-05 23:53:00
3:53 PM,35.1,33.1,92,29.75,10.0,ESE,6.9,-,0.01,,Overcast,120,2012-12-06 00:53:00
4:53 PM,34.0,33.1,96,29.76,4.0,SE,8.1,-,0.01,Snow,Light Snow,130,2012-12-06 01:53:00
5:53 PM,35.1,34.0,96,29.77,10.0,SE,9.2,-,0.03,Rain,Light Rain,130,2012-12-06 02:53:00
6:53 PM,34.0,33.1,96,29.80,10.0,SE,3.5,-,0.00,,Mostly Cloudy,140,2012-12-06 03:53:00
7:53 PM,35.1,32.0,89,29.81,10.0,SSE,4.6,-,0.00,,Mostly Cloudy,150,2012-12-06 04:53:00
8:53 PM,34.0,32.0,92,29.83,10.0,SSE,5.8,-,N/A,,Mostly Cloudy,160,2012-12-06 05:53:00
9:34 PM,35.6,33.8,93,29.83,10.0,South,6.9,-,0.00,Rain,Light Rain,170,2012-12-06 06:34:00
9:45 PM,33.8,33.8,100,29.83,8.0,SSE,5.8,-,0.00,Rain,Light Rain,160,2012-12-06 06:45:00
9:53 PM,35.1,33.1,92,29.84,10.0,SSE,5.8,-,0.00,Rain,Light Rain,150,2012-12-06 06:53:00
10:03 PM,35.6,32.0,87,29.84,10.0,SE,8.1,-,0.00,Rain,Light Rain,130,2012-12-06 07:03:00
10:33 PM,35.6,33.8,93,29.83,10.0,SSE,8.1,-,0.01,Rain,Light Rain,150,2012-12-06 07:33:00
10:43 PM,33.8,33.8,100,29.83,10.0,SSE,5.8,-,0.01,,Overcast,150,2012-12-06 07:43:00
10:53 PM,35.1,33.1,92,29.84,10.0,SE,9.2,-,0.01,Rain,Light Rain,130,2012-12-06 07:53:00
11:04 PM,35.6,33.8,93,29.83,10.0,SSE,9.2,-,0.00,Rain,Light Rain,150,2012-12-06 08:04:00
11:15 PM,33.8,32.0,93,29.83,2.5,SE,6.9,-,0.01,Snow,Light Snow,140,2012-12-06 08:15:00
11:28 PM,33.8,33.8,100,29.83,5.0,SSE,9.2,-,0.01,Snow,Light Snow,150,2012-12-06 08:28:00
11:43 PM,33.8,32.0,93,29.83,2.0,SSE,6.9,-,0.02,Snow,Light Snow,160,2012-12-06 08:43:00
11:50 PM,33.8,32.0,93,29.83,2.5,SSE,4.6,-,0.03,Snow,Light Snow,160,2012-12-06 08:50:00
11:53 PM,33.1,32.0,96,29.84,3.0,SSE,5.8,-,0.03,Snow,Light Snow,150,2012-12-06 08:53:00